EW8805 Weather Reports


Display with metric or nautical units.
time (UTC)temp
F
wind
direction
speed
MPH
gust
MPH
rain 1hr
in
rain 24hr
in
rain mn
in
humidity
%
barometer
mb
20181112214025 50 50 2.0 3.0 0.00 0.04 0.01 89 1019.1
20181112213533 51 41 2.0 2.0 0.00 0.04 0.01 89 1019.1
20181112213036 51 46 0.0 2.0 0.00 0.04 0.01 89 1019.2
20181112212529 51 39 1.0 2.0 0.00 0.04 0.01 89 1019.2
20181112212054 51 40 1.0 2.0 0.00 0.04 0.01 89 1019.2
20181112211527 51 36 0.0 1.0 0.00 0.04 0.01 89 1019.2
20181112211027 51 36 0.0 1.0 0.00 0.04 0.01 88 1019.2
20181112210529 51 4 0.0 3.0 0.00 0.04 0.01 88 1019.1
20181112210052 51 1 1.0 3.0 0.00 0.04 0.01 88 1019.0
20181112205518 51 345 1.0 2.0 0.00 0.04 0.01 88 1019.0
20181112205017 51 293 0.0 0.0 0.00 0.04 0.01 88 1019.0
20181112204523 51 287 0.0 0.0 0.00 0.04 0.01 88 1018.9
20181112204028 51 286 0.0 0.0 0.00 0.04 0.01 88 1019.0
20181112203518 52 287 0.0 1.0 0.00 0.04 0.01 87 1018.9
20181112203018 52 303 0.0 4.0 0.00 0.04 0.01 86 1018.8
20181112202529 53 314 1.0 4.0 0.00 0.04 0.01 85 1018.8
20181112202032 53 338 0.0 1.0 0.00 0.04 0.01 85 1018.6
20181112201518 53 277 0.0 1.0 0.00 0.04 0.01 86 1018.5
20181112201024 52 277 0.0 2.0 0.00 0.04 0.01 86 1018.4
20181112200532 52 274 1.0 2.0 0.00 0.04 0.01 86 1018.4
20181112200053 53 273 1.0 2.0 0.00 0.04 0.01 84 1018.3
20181112195518 53 322 0.0 4.0 0.00 0.04 0.01 84 1018.2
20181112195026 53 333 2.0 5.0 0.00 0.04 0.01 85 1018.2
20181112194518 53 295 2.0 3.0 0.00 0.04 0.01 84 1018.3
20181112194035 54 124 0.0 0.0 0.00 0.04 0.01 83 1018.2
20181112193523 54 124 0.0 0.0 0.00 0.04 0.01 81 1018.1
20181112193029 54 124 0.0 0.0 0.00 0.04 0.01 81 1018.1
20181112192519 55 124 0.0 1.0 0.00 0.04 0.01 80 1018.0
20181112192025 55 124 0.0 2.0 0.00 0.04 0.01 79 1018.0
20181112191534 56 124 0.0 2.0 0.00 0.04 0.01 79 1018.1
20181112191034 56 97 1.0 2.0 0.00 0.04 0.01 79 1018.0
20181112190517 56 94 2.0 2.0 0.00 0.04 0.01 79 1018.0
20181112190056 56 81 2.0 4.0 0.00 0.04 0.01 79 1017.9
20181112185523 56 68 2.0 4.0 0.00 0.04 0.01 78 1017.9
20181112185025 56 246 0.0 1.0 0.00 0.04 0.01 77 1017.7
20181112184516 56 246 0.0 1.0 0.00 0.04 0.01 77 1017.7
20181112184018 56 246 1.0 1.0 0.00 0.04 0.01 77 1017.8
20181112183523 57 273 0.0 1.0 0.00 0.04 0.01 75 1017.6
20181112183018 58 158 0.0 2.0 0.00 0.04 0.01 74 1017.5
20181112182525 58 157 0.0 2.0 0.00 0.04 0.01 73 1017.5
20181112182027 58 104 1.0 4.0 0.00 0.04 0.01 72 1017.4
20181112181534 58 98 4.0 6.0 0.00 0.04 0.01 72 1017.2
20181112181018 58 73 4.0 6.0 0.00 0.04 0.01 73 1017.1
20181112180528 58 98 2.0 5.0 0.00 0.04 0.01 73 1017.1
20181112180047 58 84 3.0 5.0 0.00 0.04 0.01 73 1017.0
20181112175533 58 77 2.0 4.0 0.00 0.04 0.01 73 1017.0
20181112175036 58 79 2.0 3.0 0.00 0.04 0.01 73 1017.0
20181112174525 58 90 2.0 3.0 0.00 0.04 0.01 73 1016.9
20181112174025 59 77 1.0 1.0 0.00 0.04 0.01 72 1016.9
20181112173517 59 124 0.0 0.0 0.00 0.04 0.01 72 1016.9
20181112173023 59 124 0.0 0.0 0.00 0.04 0.01 71 1016.8
20181112172528 59 124 0.0 2.0 0.00 0.04 0.01 70 1016.6
20181112172035 59 145 0.0 2.0 0.00 0.04 0.01 70 1016.6
20181112171528 59 131 1.0 3.0 0.00 0.04 0.01 69 1016.5
20181112171018 60 117 1.0 2.0 0.00 0.04 0.01 69 1016.5
20181112170525 60 126 1.0 2.0 0.00 0.04 0.01 68 1016.5
20181112170041 60 140 0.0 1.0 0.00 0.04 0.01 68 1016.4
20181112165528 60 141 0.0 2.0 0.00 0.04 0.01 67 1016.4
20181112165027 60 138 0.0 1.0 0.00 0.04 0.01 67 1016.4
20181112164519 60 158 0.0 3.0 0.00 0.04 0.01 67 1016.3
20181112164024 60 153 1.0 3.0 0.00 0.04 0.01 66 1016.3
20181112163517 61 166 1.0 3.0 0.00 0.04 0.01 66 1016.3
20181112163018 61 156 1.0 4.0 0.00 0.04 0.01 65 1016.2
20181112162524 61 163 1.0 5.0 0.00 0.04 0.01 64 1016.3
20181112162029 61 117 1.0 5.0 0.00 0.04 0.01 64 1016.1
20181112161519 61 200 2.0 5.0 0.00 0.04 0.01 63 1016.1
20181112161036 61 196 1.0 5.0 0.00 0.04 0.01 63 1016.0
20181112160524 62 168 3.0 5.0 0.00 0.04 0.01 63 1016.0
20181112160040 62 158 1.0 4.0 0.00 0.04 0.01 63 1016.0
20181112155520 62 201 2.0 4.0 0.00 0.04 0.01 63 1015.9
20181112155027 62 203 2.0 4.0 0.00 0.04 0.01 63 1016.0
20181112154519 62 79 1.0 2.0 0.00 0.04 0.01 64 1015.9
20181112154019 62 98 0.0 1.0 0.00 0.04 0.01 63 1015.9
20181112153529 62 68 1.0 3.0 0.00 0.04 0.01 63 1015.9
20181112153031 62 139 0.0 3.0 0.00 0.04 0.01 64 1016.0
20181112152520 61 169 0.0 4.0 0.00 0.04 0.01 64 1016.0
20181112152019 61 108 3.0 4.0 0.00 0.04 0.01 63 1015.9
20181112151527 61 153 2.0 3.0 0.00 0.04 0.01 64 1015.9
20181112151035 60 138 1.0 3.0 0.00 0.04 0.01 66 1015.9
20181112150523 60 98 0.0 2.0 0.00 0.04 0.01 66 1015.9
20181112150040 60 77 1.0 2.0 0.00 0.04 0.01 66 1015.9
20181112145525 60 115 0.0 2.0 0.00 0.04 0.01 66 1015.8
20181112145031 60 80 1.0 3.0 0.00 0.04 0.01 66 1015.8
20181112144519 60 120 1.0 3.0 0.00 0.04 0.01 66 1015.8
20181112144026 60 112 0.0 3.0 0.00 0.04 0.01 66 1015.7
20181112143516 60 108 2.0 3.0 0.00 0.04 0.01 66 1015.8
20181112143017 60 102 0.0 2.0 0.00 0.04 0.01 66 1015.9
20181112142524 61 282 1.0 2.0 0.00 0.04 0.01 65 1015.8
20181112142027 61 269 0.0 3.0 0.00 0.04 0.01 65 1015.9
20181112141520 61 214 1.0 3.0 0.00 0.04 0.01 65 1015.9
20181112141023 61 274 1.0 4.0 0.00 0.04 0.01 64 1015.9
20181112140534 61 219 0.0 4.0 0.00 0.04 0.01 65 1016.0
20181112140055 61 150 1.0 3.0 0.00 0.04 0.01 65 1016.1
20181112135535 61 276 0.0 4.0 0.00 0.04 0.01 65 1016.2
20181112135020 61 159 2.0 4.0 0.00 0.04 0.01 64 1016.3
20181112134525 61 214 1.0 4.0 0.00 0.04 0.01 64 1016.1
20181112134031 61 177 0.0 3.0 0.00 0.04 0.01 65 1016.1
20181112133516 60 151 1.0 3.0 0.00 0.04 0.01 67 1016.0
20181112133021 60 345 0.0 3.0 0.00 0.04 0.01 68 1016.1
20181112132531 60 240 1.0 3.0 0.00 0.04 0.01 67 1016.3
20181112132029 59 297 0.0 4.0 0.00 0.04 0.01 69 1016.2
20181112131518 59 285 1.0 4.0 0.00 0.04 0.01 69 1016.1
20181112131023 59 284 1.0 3.0 0.00 0.04 0.01 69 1016.2
20181112130534 59 256 1.0 4.0 0.00 0.04 0.01 69 1016.2
20181112130053 59 243 3.0 5.0 0.00 0.04 0.01 68 1016.2
20181112125522 59 278 4.0 5.0 0.00 0.04 0.01 68 1016.3
20181112125024 60 264 1.0 4.0 0.00 0.04 0.01 67 1016.3
20181112124527 60 294 0.0 1.0 0.00 0.04 0.01 68 1016.2
20181112124026 59 294 0.0 1.0 0.00 0.04 0.01 68 1016.3
20181112123535 59 261 0.0 4.0 0.00 0.04 0.01 69 1016.1
20181112123017 59 333 2.0 5.0 0.00 0.04 0.01 70 1016.2
20181112122521 59 228 2.0 5.0 0.00 0.04 0.01 70 1016.2
20181112122027 59 293 2.0 4.0 0.00 0.04 0.01 70 1016.2
20181112121533 58 229 1.0 9.0 0.00 0.04 0.01 71 1016.3
20181112121018 58 290 5.0 9.0 0.00 0.04 0.01 71 1016.4
20181112120525 58 285 3.0 6.0 0.00 0.04 0.01 72 1016.4
20181112120046 58 299 3.0 7.0 0.00 0.04 0.01 73 1016.5
20181112115528 58 280 4.0 8.0 0.00 0.04 0.01 74 1016.5
20181112115034 58 295 5.0 8.0 0.00 0.04 0.01 74 1016.4
20181112114522 57 288 6.0 9.0 0.00 0.04 0.01 75 1016.4
20181112114027 57 354 6.0 10.0 0.00 0.04 0.01 75 1016.5
20181112113533 57 321 7.0 10.0 0.00 0.04 0.01 77 1016.5
20181112113017 56 294 5.0 9.0 0.00 0.04 0.01 80 1016.6
20181112112525 56 290 4.0 8.0 0.00 0.04 0.01 82 1016.6
20181112112020 56 340 5.0 8.0 0.00 0.04 0.01 84 1016.6
20181112111528 56 264 4.0 6.0 0.00 0.04 0.01 83 1016.8
20181112111015 56 280 5.0 6.0 0.00 0.04 0.01 83 1016.9
20181112110525 55 284 4.0 6.0 0.00 0.04 0.01 83 1016.9
20181112110040 55 269 3.0 5.0 0.00 0.04 0.01 84 1016.9
20181112105527 55 281 3.0 6.0 0.00 0.04 0.01 86 1017.1
20181112105033 55 283 4.0 6.0 0.00 0.04 0.01 85 1017.0
20181112104516 55 270 3.0 5.0 0.00 0.04 0.01 85 1017.1
20181112104019 55 284 2.0 5.0 0.00 0.04 0.01 85 1017.0
20181112103527 55 287 3.0 5.0 0.00 0.04 0.01 84 1017.0
20181112103028 55 283 1.0 3.0 0.00 0.04 0.01 85 1017.0
20181112102534 55 285 1.0 3.0 0.00 0.04 0.01 84 1016.9
20181112102016 55 273 0.0 2.0 0.00 0.04 0.01 85 1016.9
20181112101520 55 278 0.0 2.0 0.00 0.04 0.01 84 1016.8
20181112101019 55 302 0.0 1.0 0.00 0.04 0.01 85 1016.6
20181112100526 55 339 0.0 1.0 0.00 0.04 0.01 86 1016.5
20181112100047 54 60 0.0 1.0 0.00 0.04 0.01 86 1016.4
20181112095523 54 74 0.0 3.0 0.00 0.04 0.01 87 1016.2
20181112095034 54 75 0.0 3.0 0.00 0.04 0.01 87 1016.1
20181112094532 54 68 1.0 3.0 0.00 0.04 0.01 86 1016.1
20181112094022 54 63 1.0 2.0 0.00 0.04 0.01 86 1016.2
20181112093527 54 11 0.0 1.0 0.00 0.04 0.01 87 1016.1
20181112093024 54 350 0.0 4.0 0.00 0.04 0.01 88 1016.1
20181112092529 53 329 1.0 4.0 0.00 0.04 0.01 88 1015.9
20181112092030 53 335 2.0 4.0 0.00 0.04 0.01 89 1016.0
20181112091524 53 348 2.0 4.0 0.00 0.04 0.01 90 1015.9
20181112091016 53 326 2.0 4.0 0.00 0.04 0.01 91 1015.8
20181112090531 52 15 0.0 3.0 0.00 0.04 0.01 91 1015.9
20181112090051 52 335 0.0 2.0 0.00 0.04 0.01 91 1015.8
20181112085516 52 12 0.0 2.0 0.00 0.04 0.01 92 1015.8
20181112085034 51 357 0.0 3.0 0.00 0.04 0.01 93 1015.8
20181112084519 51 73 2.0 3.0 0.00 0.04 0.01 94 1015.7
20181112084022 50 82 1.0 4.0 0.00 0.04 0.01 94 1015.7
20181112083527 50 61 2.0 4.0 0.00 0.04 0.01 94 1015.8
20181112083028 50 48 1.0 3.0 0.00 0.04 0.01 95 1015.6
20181112082521 49 15 1.0 2.0 0.00 0.04 0.01 95 1015.5
20181112082026 49 36 1.0 2.0 0.00 0.04 0.01 95 1015.5
20181112081529 48 46 0.0 4.0 0.00 0.04 0.01 95 1015.3
20181112081035 48 16 1.0 2.0 0.00 0.04 0.01 96 1015.2
20181112080525 47 340 1.0 3.0 0.00 0.04 0.01 95 1015.3
20181112080043 47 14 1.0 3.0 0.00 0.04 0.01 95 1015.2
20181112075525 47 26 0.0 2.0 0.00 0.04 0.01 95 1015.0
20181112075028 46 340 0.0 1.0 0.00 0.04 0.01 95 1014.9
20181112074535 46 354 0.0 3.0 0.00 0.04 0.01 95 1014.9
20181112074019 46 6 0.0 0.0 0.00 0.04 0.01 95 1014.8
20181112073528 45 346 0.0 2.0 0.00 0.04 0.01 95 1014.8
20181112073029 45 350 1.0 2.0 0.00 0.04 0.01 95 1014.7
20181112072519 45 339 1.0 2.0 0.00 0.04 0.01 95 1014.7
20181112072029 45 8 0.0 1.0 0.00 0.04 0.01 95 1014.5
20181112071532 45 9 0.0 2.0 0.00 0.04 0.01 95 1014.5
20181112071033 44 296 1.0 2.0 0.00 0.04 0.01 95 1014.3
20181112070518 44 4 0.0 1.0 0.00 0.04 0.01 95 1014.2
20181112070057 44 4 0.0 3.0 0.00 0.04 0.01 95 1014.1
20181112065521 45 53 3.0 3.0 0.00 0.04 0.01 95 1014.1
20181112065017 45 72 2.0 4.0 0.00 0.04 0.01 95 1014.0
20181112064528 45 81 3.0 5.0 0.00 0.04 0.01 95 1013.9
20181112064033 45 77 3.0 5.0 0.00 0.04 0.01 95 1013.8
20181112063524 45 77 2.0 4.0 0.00 0.04 0.01 95 1013.7
20181112063025 45 68 2.0 5.0 0.00 0.04 0.01 95 1013.7
20181112062518 45 76 4.0 5.0 0.00 0.04 0.01 95 1013.7
20181112062024 46 69 3.0 5.0 0.00 0.04 0.01 95 1013.5
20181112061528 45 94 4.0 6.0 0.00 0.04 0.01 94 1013.6
20181112061027 46 91 4.0 5.0 0.00 0.04 0.01 94 1013.6
20181112060534 46 85 3.0 5.0 0.00 0.04 0.01 95 1013.5
20181112060052 46 76 3.0 5.0 0.00 0.04 0.01 94 1013.5
20181112055520 47 61 3.0 4.0 0.00 0.04 0.01 94 1013.5
20181112055027 47 68 2.0 5.0 0.00 0.04 0.01 95 1013.4
20181112054517 47 95 3.0 5.0 0.00 0.04 0.01 96 1013.4
20181112054017 46 69 4.0 6.0 0.00 0.04 0.01 95 1013.3
20181112053526 46 77 4.0 5.0 0.00 0.04 0.01 95 1013.3
20181112053030 45 84 3.0 5.0 0.00 0.04 0.01 94 1013.3
20181112052027 46 75 0.0 2.0 0.00 0.04 0.01 94 1013.4
20181112051517 46 113 0.0 4.0 0.00 0.04 0.01 95 1013.4
20181112051019 46 106 3.0 5.0 0.00 0.04 0.01 95 1013.4
20181112050526 46 108 2.0 6.0 0.00 0.04 0.01 95 1013.3
20181112050043 46 101 4.0 6.0 0.00 0.04 0.01 95 1013.4
20181112045528 45 91 5.0 6.0 0.00 0.04 0.01 95 1013.4
20181112045028 45 126 5.0 7.0 0.00 0.04 0.01 94 1013.5
20181112044535 46 108 5.0 7.0 0.04 0.04 0.01 95 1013.5
20181112044018 46 104 6.0 7.0 0.04 0.04 0.01 96 1013.6
20181112043525 45 99 3.0 4.0 0.04 0.04 0.01 95 1013.7
20181112043026 45 98 3.0 5.0 0.04 0.04 0.01 95 1013.7
20181112042535 45 86 4.0 5.0 0.04 0.04 0.01 94 1013.7
20181112042032 46 67 4.0 4.0 0.04 0.04 0.01 93 1013.9
20181112041535 47 68 0.0 2.0 0.04 0.04 0.01 95 1013.9
20181112041020 47 294 1.0 3.0 0.04 0.04 0.01 94 1013.9
20181112040529 47 290 2.0 3.0 0.04 0.04 0.01 93 1013.9
20181112040044 47 243 1.0 4.0 0.04 0.04 0.01 94 1013.9
20181112035527 47 271 2.0 4.0 0.04 0.04 0.01 89 1013.8
20181112035032 49 287 2.0 3.0 0.04 0.04 0.01 92 1013.8
20181112034523 50 151 1.0 5.0 0.00 0.00 0.00 93 1013.7
20181112034026 50 194 2.0 5.0 0.00 0.00 0.00 93 1013.8
20181112033518 49 177 3.0 5.0 0.00 0.00 0.00 95 1013.9
20181112033021 49 199 3.0 5.0 0.00 0.00 0.00 95 1013.9
20181112032529 48 224 2.0 3.0 0.00 0.00 0.00 95 1014.0
20181112032031 48 245 1.0 2.0 0.00 0.00 0.00 95 1014.1
20181112031521 47 281 0.0 2.0 0.00 0.00 0.00 94 1014.1
20181112031022 48 271 0.0 3.0 0.00 0.00 0.00 94 1014.0
20181112030523 47 146 1.0 3.0 0.00 0.00 0.00 94 1014.0
20181112030047 47 146 1.0 2.0 0.00 0.00 0.00 94 1014.0
20181112025517 47 221 0.0 1.0 0.00 0.00 0.00 94 1014.0
20181112025020 48 226 0.0 1.0 0.00 0.00 0.00 94 1014.0
20181112024525 48 253 0.0 1.0 0.00 0.00 0.00 94 1013.9
20181112024055 48 285 0.0 2.0 0.00 0.00 0.00 93 1014.0
20181112023520 48 316 2.0 2.0 0.00 0.00 0.00 92 1014.0
20181112023022 49 219 0.0 3.0 0.00 0.00 0.00 94 1013.9
20181112022527 49 188 1.0 3.0 0.00 0.00 0.00 94 1013.8
20181112022027 49 210 1.0 3.0 0.00 0.00 0.00 94 1013.8
20181112021532 49 139 1.0 2.0 0.00 0.00 0.00 95 1013.7
20181112021017 49 229 1.0 4.0 0.00 0.00 0.00 94 1013.7
20181112020523 49 186 2.0 4.0 0.00 0.00 0.00 94 1013.7
20181112020100 49 163 0.0 2.0 0.00 0.00 0.00 95 1013.6
20181112015525 49 183 0.0 2.0 0.00 0.00 0.00 95 1013.5
20181112015028 49 174 1.0 2.0 0.00 0.00 0.00 95 1013.5
20181112014520 48 188 0.0 2.0 0.00 0.00 0.00 94 1013.5
20181112014018 49 155 0.0 3.0 0.00 0.00 0.00 94 1013.5
20181112013526 49 117 2.0 3.0 0.00 0.00 0.00 93 1013.5
20181112013025 49 125 2.0 3.0 0.00 0.00 0.00 92 1013.5
20181112012532 50 195 0.0 1.0 0.00 0.00 0.00 92 1013.5
20181112012021 51 226 0.0 2.0 0.00 0.00 0.00 94 1013.4
20181112011527 51 229 0.0 3.0 0.00 0.00 0.00 95 1013.4
20181112011023 50 209 1.0 2.0 0.00 0.00 0.00 96 1013.4
20181112010517 50 219 0.0 0.0 0.00 0.00 0.00 96 1013.4
20181112010058 50 232 0.0 0.0 0.00 0.00 0.00 96 1013.4
20181112005526 50 145 0.0 0.0 0.00 0.00 0.00 96 1013.4
20181112005029 49 146 0.0 0.0 0.00 0.00 0.00 95 1013.4
20181112004518 49 274 0.0 0.0 0.00 0.00 0.00 95 1013.4
20181112004020 49 274 0.0 0.0 0.00 0.00 0.00 94 1013.4
20181112003525 49 274 0.0 0.0 0.00 0.00 0.00 95 1013.3
20181112003027 50 274 0.0 0.0 0.00 0.00 0.00 95 1013.3
20181112002536 50 275 0.0 0.0 0.00 0.00 0.00 96 1013.3
20181112002036 49 274 0.0 0.0 0.00 0.00 0.00 95 1013.3
20181112001521 49 274 0.0 0.0 0.00 0.00 0.00 95 1013.3
20181112001021 49 274 0.0 0.0 0.00 0.00 0.00 95 1013.3
20181112000530 48 274 0.0 0.0 0.00 0.00 0.00 94 1013.3
20181112000050 49 274 0.0 0.0 0.00 0.00 0.00 93 1013.3
20181111235518 49 274 0.0 0.0 0.00 0.00 0.00 93 1013.3
20181111235021 49 274 0.0 1.0 0.00 0.00 0.00 93 1013.2
20181111234535 50 274 0.0 2.0 0.00 0.00 0.00 93 1013.3
20181111234035 50 274 0.0 2.0 0.00 0.00 0.00 92 1013.4
20181111233522 50 219 0.0 0.0 0.00 0.00 0.00 95 1013.4
20181111233023 50 238 0.0 0.0 0.00 0.00 0.00 94 1013.3
20181111232524 50 167 0.0 1.0 0.00 0.00 0.00 94 1013.3
20181111232029 50 166 0.0 1.0 0.00 0.00 0.00 93 1013.2
20181111231518 50 163 0.0 1.0 0.00 0.00 0.00 93 1013.3
20181111231018 50 166 0.0 1.0 0.00 0.00 0.00 93 1013.1
20181111230519 50 190 0.0 0.0 0.00 0.00 0.00 93 1013.1
20181111230104 51 193 0.0 0.0 0.00 0.00 0.00 94 1013.1
20181111225031 50 148 0.0 2.0 0.00 0.00 0.00 92 1013.0
20181111224521 51 151 0.0 2.0 0.00 0.00 0.00 93 1013.0
20181111224026 51 128 1.0 2.0 0.00 0.00 0.00 92 1013.1
20181111223530 51 125 0.0 1.0 0.00 0.00 0.00 93 1013.0
20181111223017 51 142 0.0 2.0 0.00 0.00 0.00 93 1013.0
20181111222528 51 114 1.0 2.0 0.00 0.00 0.00 93 1012.9
20181111222032 51 148 0.0 0.0 0.00 0.00 0.00 92 1013.0
20181111221518 51 204 0.0 0.0 0.00 0.00 0.00 92 1013.0
20181111221022 51 239 0.0 0.0 0.00 0.00 0.00 92 1013.0
20181111220533 52 239 0.0 0.0 0.00 0.00 0.00 92 1012.9
20181111220052 51 239 0.0 0.0 0.00 0.00 0.00 94 1012.9
20181111215521 51 239 0.0 0.0 0.00 0.00 0.00 93 1012.8
20181111215025 51 243 0.0 0.0 0.00 0.00 0.00 93 1012.8
20181111214536 51 246 0.0 0.0 0.00 0.00 0.00 92 1012.8